| time (UTC) | temp C | wind direction | speed KPH | gust KPH | rain 1hr cm | rain 24hr cm | rain mn cm | humidity % | barometer mb |
| 20260505005832 | 11 | 335 | 14.5 | 30.6 | 0.00 | 0.46 | 0.00 | 93 | 1013.4 |
| 20260505005334 | 11 | 343 | 16.1 | 30.6 | 0.00 | 0.46 | 0.00 | 93 | 1013.4 |
| 20260505004836 | 11 | 335 | 14.5 | 24.1 | 0.00 | 0.46 | 0.00 | 93 | 1013.4 |
| 20260505004333 | 11 | 0 | 14.5 | 24.1 | 0.00 | 0.46 | 0.00 | 93 | 1013.4 |
| 20260505003831 | 11 | 341 | 12.9 | 24.1 | 0.00 | 0.46 | 0.00 | 93 | 1013.4 |
| 20260505003332 | 11 | 330 | 12.9 | 24.1 | 0.00 | 0.46 | 0.00 | 93 | 1013.4 |
| 20260505002833 | 11 | 356 | 14.5 | 27.4 | 0.00 | 0.46 | 0.00 | 93 | 1013.5 |
| 20260505002416 | 11 | 303 | 14.5 | 27.4 | 0.00 | 0.46 | 0.00 | 92 | 1013.5 |
| 20260505001406 | 11 | 4 | 14.5 | 29.0 | 0.00 | 0.46 | 0.00 | 93 | 1013.6 |
| 20260505000328 | 11 | 325 | 14.5 | 27.4 | 0.00 | 0.46 | 0.00 | 93 | 1013.6 |
| 20260504235825 | 11 | 325 | 14.5 | 27.4 | 0.00 | 0.46 | 0.00 | 93 | 1013.6 |
| 20260504235325 | 11 | 325 | 14.5 | 30.6 | 0.00 | 0.46 | 0.00 | 93 | 1013.6 |
| 20260504234915 | 11 | 341 | 14.5 | 30.6 | 0.00 | 0.46 | 0.00 | 93 | 1013.6 |
| 20260504233824 | 12 | 347 | 12.9 | 27.4 | 0.00 | 0.46 | 0.00 | 94 | 1013.7 |
| 20260504233326 | 12 | 300 | 11.3 | 24.1 | 0.00 | 0.46 | 0.00 | 94 | 1013.7 |
| 20260504232902 | 12 | 349 | 11.3 | 22.5 | 0.00 | 0.46 | 0.00 | 94 | 1013.7 |
| 20260504231825 | 12 | 347 | 12.9 | 24.1 | 0.00 | 0.46 | 0.00 | 94 | 1013.8 |
| 20260504231325 | 12 | 325 | 12.9 | 27.4 | 0.00 | 0.46 | 0.00 | 94 | 1013.9 |
| 20260504230825 | 12 | 8 | 14.5 | 27.4 | 0.00 | 0.46 | 0.00 | 94 | 1013.9 |
| 20260504230322 | 12 | 341 | 14.5 | 27.4 | 0.00 | 0.46 | 0.00 | 94 | 1013.8 |
| 20260504225823 | 12 | 325 | 14.5 | 27.4 | 0.00 | 0.46 | 0.00 | 94 | 1013.9 |
| 20260504225323 | 12 | 354 | 11.3 | 20.9 | 0.00 | 0.46 | 0.00 | 94 | 1013.9 |
| 20260504224822 | 12 | 339 | 9.7 | 17.7 | 0.00 | 0.46 | 0.00 | 94 | 1013.9 |
| 20260504224317 | 12 | 325 | 11.3 | 20.9 | 0.00 | 0.46 | 0.00 | 94 | 1013.9 |
| 20260504223819 | 12 | 342 | 11.3 | 20.9 | 0.00 | 0.46 | 0.00 | 94 | 1014.0 |
| 20260504223317 | 12 | 325 | 11.3 | 19.3 | 0.00 | 0.46 | 0.00 | 94 | 1014.0 |
| 20260504222816 | 12 | 316 | 11.3 | 22.5 | 0.00 | 0.46 | 0.00 | 94 | 1014.0 |
| 20260504222355 | 12 | 349 | 11.3 | 22.5 | 0.00 | 0.46 | 0.00 | 94 | 1014.0 |
| 20260504221316 | 12 | 320 | 12.9 | 20.9 | 0.00 | 0.46 | 0.00 | 94 | 1014.1 |
| 20260504220815 | 12 | 325 | 12.9 | 20.9 | 0.00 | 0.46 | 0.00 | 94 | 1014.1 |
| 20260504220351 | 12 | 346 | 11.3 | 19.3 | 0.00 | 0.46 | 0.00 | 94 | 1014.1 |
| 20260504215354 | 12 | 31 | 11.3 | 20.9 | 0.00 | 0.46 | 0.46 | 94 | 1014.1 |
| 20260504214316 | 12 | 325 | 11.3 | 25.7 | 0.00 | 0.46 | 0.46 | 93 | 1014.2 |
| 20260504213815 | 12 | 343 | 11.3 | 25.7 | 0.00 | 0.46 | 0.46 | 93 | 1014.2 |
| 20260504213318 | 13 | 345 | 11.3 | 20.9 | 0.00 | 0.46 | 0.46 | 93 | 1014.2 |
| 20260504212821 | 13 | 330 | 12.9 | 24.1 | 0.00 | 0.46 | 0.46 | 93 | 1014.3 |
| 20260504212318 | 13 | 318 | 12.9 | 24.1 | 0.00 | 0.46 | 0.46 | 93 | 1014.3 |
| 20260504211814 | 13 | 325 | 11.3 | 22.5 | 0.00 | 0.46 | 0.46 | 93 | 1014.3 |
| 20260504211316 | 13 | 344 | 12.9 | 22.5 | 0.00 | 0.46 | 0.46 | 93 | 1014.3 |
| 20260504210815 | 13 | 10 | 12.9 | 25.7 | 0.00 | 0.46 | 0.46 | 93 | 1014.4 |
| 20260504210315 | 13 | 325 | 12.9 | 25.7 | 0.00 | 0.46 | 0.46 | 93 | 1014.4 |
| 20260504205816 | 13 | 347 | 11.3 | 24.1 | 0.00 | 0.46 | 0.46 | 93 | 1014.3 |
| 20260504205318 | 13 | 64 | 11.3 | 24.1 | 0.00 | 0.46 | 0.46 | 93 | 1014.4 |
| 20260504204900 | 13 | 310 | 9.7 | 22.5 | 0.00 | 0.46 | 0.46 | 93 | 1014.4 |
| 20260504203812 | 13 | 325 | 11.3 | 22.5 | 0.00 | 0.46 | 0.46 | 92 | 1014.4 |
| 20260504203313 | 13 | 330 | 9.7 | 22.5 | 0.00 | 0.46 | 0.46 | 92 | 1014.4 |
| 20260504202811 | 13 | 335 | 9.7 | 22.5 | 0.00 | 0.46 | 0.46 | 92 | 1014.4 |
| 20260504202350 | 13 | 295 | 9.7 | 17.7 | 0.00 | 0.46 | 0.46 | 92 | 1014.3 |
| 20260504201436 | 13 | 6 | 11.3 | 24.1 | 0.00 | 0.46 | 0.46 | 92 | 1014.3 |
| 20260504195807 | 13 | 26 | 14.5 | 29.0 | 0.00 | 0.46 | 0.46 | 92 | 1014.2 |
| 20260504195316 | 13 | 0 | 14.5 | 29.0 | 0.00 | 0.46 | 0.46 | 93 | 1014.2 |
| 20260504194931 | 13 | 325 | 12.9 | 29.0 | 0.00 | 0.46 | 0.46 | 93 | 1014.1 |
| 20260504193808 | 13 | 344 | 12.9 | 24.1 | 0.00 | 0.46 | 0.46 | 93 | 1014.1 |
| 20260504193306 | 13 | 14 | 12.9 | 24.1 | 0.00 | 0.46 | 0.46 | 93 | 1014.1 |
| 20260504192906 | 13 | 9 | 14.5 | 24.1 | 0.00 | 0.46 | 0.46 | 93 | 1014.1 |
| 20260504191805 | 13 | 10 | 12.9 | 30.6 | 0.00 | 0.46 | 0.46 | 92 | 1014.0 |
| 20260504191306 | 14 | 341 | 11.3 | 20.9 | 0.00 | 0.46 | 0.46 | 93 | 1013.9 |
| 20260504190806 | 14 | 0 | 11.3 | 22.5 | 0.00 | 0.46 | 0.46 | 93 | 1013.8 |
| 20260504190305 | 14 | 341 | 11.3 | 24.1 | 0.00 | 0.46 | 0.46 | 93 | 1013.7 |
| 20260504185806 | 14 | 16 | 12.9 | 24.1 | 0.00 | 0.46 | 0.46 | 93 | 1013.7 |
| 20260504185304 | 14 | 346 | 11.3 | 20.9 | 0.00 | 0.46 | 0.46 | 93 | 1013.7 |
| 20260504184807 | 14 | 325 | 9.7 | 20.9 | 0.00 | 0.46 | 0.46 | 93 | 1013.7 |
| 20260504184303 | 14 | 335 | 11.3 | 24.1 | 0.00 | 0.46 | 0.46 | 93 | 1013.7 |
| 20260504183802 | 14 | 7 | 11.3 | 24.1 | 0.00 | 0.48 | 0.46 | 93 | 1013.7 |
| 20260504183302 | 14 | 349 | 11.3 | 24.1 | 0.00 | 0.51 | 0.46 | 93 | 1013.7 |
| 20260504182804 | 14 | 316 | 11.3 | 24.1 | 0.00 | 0.51 | 0.46 | 93 | 1013.6 |
| 20260504182334 | 15 | 10 | 11.3 | 20.9 | 0.00 | 0.51 | 0.46 | 93 | 1013.7 |
| 20260504181304 | 15 | 13 | 12.9 | 25.7 | 0.00 | 0.51 | 0.46 | 93 | 1013.6 |
| 20260504180804 | 15 | 330 | 12.9 | 24.1 | 0.00 | 0.51 | 0.46 | 93 | 1013.5 |
| 20260504180304 | 15 | 343 | 11.3 | 20.9 | 0.00 | 0.51 | 0.46 | 94 | 1013.5 |
| 20260504175803 | 15 | 335 | 11.3 | 20.9 | 0.00 | 0.51 | 0.46 | 94 | 1013.4 |
| 20260504175304 | 15 | 23 | 9.7 | 20.9 | 0.00 | 0.51 | 0.46 | 94 | 1013.5 |
| 20260504174804 | 15 | 353 | 9.7 | 17.7 | 0.00 | 0.51 | 0.46 | 94 | 1013.5 |
| 20260504174307 | 15 | 359 | 9.7 | 17.7 | 0.00 | 0.51 | 0.46 | 94 | 1013.5 |
| 20260504173804 | 15 | 325 | 9.7 | 22.5 | 0.00 | 0.51 | 0.46 | 94 | 1013.6 |
| 20260504173306 | 15 | 359 | 11.3 | 22.5 | 0.00 | 0.53 | 0.46 | 94 | 1013.5 |
| 20260504172804 | 15 | 349 | 12.9 | 20.9 | 0.00 | 0.53 | 0.46 | 94 | 1013.5 |
| 20260504172303 | 15 | 335 | 11.3 | 20.9 | 0.00 | 0.53 | 0.46 | 94 | 1013.6 |
| 20260504171803 | 15 | 320 | 9.7 | 17.7 | 0.00 | 0.53 | 0.46 | 93 | 1013.5 |
| 20260504171301 | 15 | 293 | 8.0 | 16.1 | 0.00 | 0.53 | 0.46 | 93 | 1013.5 |
| 20260504170801 | 15 | 330 | 8.0 | 17.7 | 0.00 | 0.53 | 0.46 | 93 | 1013.4 |
| 20260504170316 | 15 | 314 | 8.0 | 17.7 | 0.00 | 0.53 | 0.46 | 93 | 1013.5 |
| 20260504160301 | 16 | 310 | 3.2 | 8.0 | 0.08 | 0.64 | 0.46 | 92 | 1013.5 |
| 20260504150746 | 16 | 263 | 3.2 | 6.4 | 0.05 | 0.58 | 0.41 | 92 | 1013.5 |
| 20260504150245 | 16 | 294 | 3.2 | 6.4 | 0.03 | 0.53 | 0.36 | 92 | 1013.5 |
| 20260504141243 | 16 | 29 | 4.8 | 6.4 | 0.33 | 0.74 | 0.33 | 93 | 1013.8 |
| 20260504140743 | 16 | 34 | 4.8 | 9.7 | 0.33 | 0.76 | 0.33 | 93 | 1013.8 |
| 20260504140240 | 16 | 51 | 3.2 | 9.7 | 0.33 | 0.76 | 0.33 | 93 | 1013.8 |
| 20260504120311 | 18 | 75 | 4.8 | 11.3 | 0.00 | 0.48 | 0.00 | 86 | 1014.1 |
| 20260504110318 | 17 | 354 | 1.6 | 6.4 | 0.00 | 0.61 | 0.00 | 89 | 1014.4 |
| 20260504100215 | 15 | 69 | 3.2 | 4.8 | 0.00 | 0.79 | 0.00 | 98 | 1014.6 |
| 20260504080702 | 14 | 118 | 0.0 | 3.2 | 0.00 | 1.09 | 0.00 | 99 | 1014.3 |
| 20260504080236 | 13 | 118 | 1.6 | 4.8 | 0.00 | 1.09 | 0.00 | 99 | 1014.3 |
| 20260504070156 | 13 | 178 | 1.6 | 8.0 | 0.00 | 1.09 | 0.00 | 99 | 1013.7 |
| 20260504060223 | 12 | 172 | 1.6 | 3.2 | 0.00 | 1.09 | 0.00 | 99 | 1013.5 |
| 20260504050634 | 12 | 127 | 1.6 | 4.8 | 0.00 | 1.09 | 0.00 | 99 | 1012.6 |
| 20260504050209 | 12 | 127 | 1.6 | 6.4 | 0.00 | 1.09 | 0.00 | 99 | 1012.6 |
| 20260504045131 | 12 | 139 | 1.6 | 3.2 | 0.00 | 1.09 | 0.00 | 99 | 1012.5 |
| 20260504044632 | 12 | 139 | 1.6 | 3.2 | 0.00 | 1.09 | 0.00 | 98 | 1012.6 |
| 20260504044135 | 12 | 139 | 0.0 | 3.2 | 0.00 | 1.09 | 0.00 | 98 | 1012.6 |
| 20260504043635 | 12 | 139 | 0.0 | 3.2 | 0.00 | 1.09 | 0.00 | 98 | 1012.5 |
| 20260504043136 | 12 | 139 | 0.0 | 3.2 | 0.00 | 1.09 | 0.00 | 98 | 1012.6 |
| 20260504042640 | 12 | 139 | 0.0 | 3.2 | 0.00 | 1.09 | 0.00 | 98 | 1012.6 |
| 20260504042131 | 12 | 139 | 0.0 | 1.6 | 0.00 | 1.09 | 0.00 | 98 | 1012.7 |
| 20260504041633 | 12 | 139 | 0.0 | 3.2 | 0.00 | 1.09 | 0.00 | 98 | 1012.7 |
| 20260504041131 | 12 | 139 | 1.6 | 3.2 | 0.00 | 1.09 | 0.00 | 98 | 1012.7 |
| 20260504040701 | 12 | 139 | 1.6 | 6.4 | 0.00 | 1.09 | 0.00 | 98 | 1012.8 |
| 20260504035657 | 12 | 139 | 1.6 | 3.2 | 0.00 | 1.09 | 0.00 | 98 | 1012.7 |
| 20260504034637 | 12 | 139 | 0.0 | 3.2 | 0.00 | 1.09 | 0.00 | 98 | 1012.7 |
| 20260504034209 | 12 | 139 | 1.6 | 3.2 | 0.00 | 1.09 | 0.00 | 98 | 1012.8 |
| 20260504033135 | 12 | 139 | 1.6 | 3.2 | 0.00 | 1.09 | 0.00 | 98 | 1012.8 |
| 20260504032632 | 12 | 139 | 0.0 | 3.2 | 0.00 | 1.09 | 0.00 | 98 | 1012.8 |
| 20260504032134 | 12 | 139 | 0.0 | 1.6 | 0.00 | 1.09 | 0.00 | 98 | 1012.9 |
| 20260504031656 | 12 | 139 | 0.0 | 1.6 | 0.00 | 1.09 | 0.00 | 98 | 1012.9 |
| 20260504030632 | 11 | 139 | 0.0 | 3.2 | 0.00 | 1.09 | 0.00 | 98 | 1013.0 |
| 20260504030132 | 11 | 139 | 0.0 | 3.2 | 0.00 | 1.09 | 0.00 | 98 | 1012.9 |
| 20260504025630 | 11 | 139 | 0.0 | 1.6 | 0.00 | 1.09 | 0.00 | 98 | 1012.9 |
| 20260504025130 | 11 | 139 | 0.0 | 1.6 | 0.00 | 1.09 | 0.00 | 98 | 1012.9 |
| 20260504024630 | 11 | 139 | 0.0 | 1.6 | 0.00 | 1.09 | 0.00 | 98 | 1012.9 |
| 20260504024130 | 11 | 139 | 0.0 | 3.2 | 0.00 | 1.09 | 0.00 | 98 | 1012.9 |
| 20260504023632 | 11 | 139 | 1.6 | 3.2 | 0.00 | 1.09 | 0.00 | 98 | 1012.7 |
| 20260504023129 | 11 | 139 | 1.6 | 3.2 | 0.00 | 1.09 | 0.00 | 98 | 1012.7 |
| 20260504022632 | 11 | 139 | 1.6 | 3.2 | 0.00 | 1.09 | 0.00 | 98 | 1012.6 |
| 20260504022131 | 11 | 139 | 0.0 | 3.2 | 0.00 | 1.09 | 0.00 | 98 | 1012.6 |
| 20260504021631 | 11 | 139 | 0.0 | 1.6 | 0.00 | 1.09 | 0.00 | 98 | 1012.6 |
| 20260504021141 | 11 | 139 | 1.6 | 3.2 | 0.00 | 1.09 | 0.00 | 98 | 1012.6 |
| 20260504020631 | 11 | 139 | 1.6 | 3.2 | 0.00 | 1.09 | 0.00 | 98 | 1012.6 |
| 20260504020129 | 11 | 139 | 1.6 | 3.2 | 0.00 | 1.09 | 0.00 | 97 | 1012.6 |
| 20260504015628 | 11 | 152 | 1.6 | 3.2 | 0.00 | 1.09 | 0.00 | 97 | 1012.5 |
| 20260504015204 | 11 | 152 | 1.6 | 3.2 | 0.00 | 1.09 | 0.00 | 97 | 1012.5 |
| 20260504014206 | 11 | 152 | 0.0 | 3.2 | 0.00 | 1.09 | 0.00 | 97 | 1012.6 |
| 20260504013136 | 11 | 152 | 0.0 | 3.2 | 0.00 | 1.09 | 0.00 | 98 | 1012.7 |
| 20260504012640 | 11 | 152 | 0.0 | 0.0 | 0.00 | 1.09 | 0.00 | 98 | 1012.6 |
| 20260504012130 | 11 | 152 | 0.0 | 1.6 | 0.00 | 1.09 | 0.00 | 97 | 1012.6 |
| 20260504011629 | 11 | 152 | 0.0 | 1.6 | 0.00 | 1.09 | 0.00 | 97 | 1012.6 |
| 20260504011130 | 11 | 152 | 0.0 | 1.6 | 0.00 | 1.09 | 0.00 | 97 | 1012.5 |
| 20260504010801 | 11 | 152 | 0.0 | 1.6 | 0.00 | 1.09 | 0.00 | 97 | 1012.4 |